Location: Newark
(39.6172°N, 96.8533°W)
Time: 05:13:24
(UTC+00:00)

Envisat - Visible Passes

Search period start: 26 January 2020 00:00
Search period end: 05 February 2020 00:00
Orbit: 764 x 766 km, 98.1° (Epoch: 25 January)

Date Brightness Start Highest point End Pass type
(mag) Time Alt. Az. Time Alt. Az. Time Alt. Az.
26 Jan 3.0 00:09:08 10° SSE 00:14:11 74° ENE 00:19:16 10° N visible
26 Jan 6.3 01:51:52 10° WSW 01:53:42 12° W 01:55:34 10° WNW visible
26 Jan 5.3 12:19:26 10° NE 12:23:44 27° E 12:28:00 10° SSE visible
27 Jan 5.2 01:12:17 10° SSW 01:16:35 27° W 01:20:54 10° NW visible
27 Jan 6.3 11:44:51 10° ENE 11:46:36 12° E 11:48:20 10° ESE visible
28 Jan 3.6 00:34:38 10° S 00:39:39 63° W 00:44:42 10° NNW visible
28 Jan 4.2 12:44:25 10° NNE 12:49:21 48° E 12:54:14 10° S visible
29 Jan 6.1 01:39:20 10° SW 01:42:17 15° W 01:45:16 10° NW visible
29 Jan 5.7 12:08:30 10° NE 12:12:21 21° E 12:16:11 10° SE visible
30 Jan 4.8 01:00:37 10° SSW 01:05:13 35° W 01:09:52 10° NNW visible
31 Jan 3.2 00:23:16 10° S 00:28:21 80° WSW 00:33:28 10° NNW visible
31 Jan 4.7 12:33:17 10° NNE 12:38:01 38° E 12:42:42 10° SSE visible
01 Feb 5.8 01:27:15 10° SW 01:30:53 20° W 01:34:34 10° NW visible
01 Feb 6.1 11:57:44 10° NE 12:00:58 17° E 12:04:10 10° SE visible
02 Feb 4.3 00:49:03 10° S 00:53:53 44° W 00:58:45 10° NNW visible
02 Feb 3.5 12:58:29 10° NNE 13:03:34 68° ESE 13:08:36 10° S visible
03 Feb 3.0 00:12:00 10° SSE 00:17:04 81° ENE 00:22:10 10° N visible
03 Feb 6.4 01:55:36 10° W 01:56:39 11° W 01:57:44 10° WNW visible
03 Feb 5.2 12:22:13 10° NE 12:26:39 30° E 12:31:04 10° SSE visible
04 Feb 5.4 01:15:22 10° SSW 01:19:30 25° W 01:23:40 10° NW visible
04 Feb 6.3 11:47:16 10° ENE 11:49:33 13° E 11:51:50 10° ESE visible
